Location: Ch?enovice
(49.7164°N, 15.2160°E)
Time: 20:02:49
(UTC+00:00)

Meteor 1-21 - Pass Details

Date: 23 May 2024
Orbit: 844 x 886 km, 81.2° (Epoch: 20 June)

Event Time Altitude Azimuth Distance (km) Brightness Sun altitude
Exits shadow 00:04:41 31° 197° (SSW) 1,470 4.9 -18.0°
Maximum altitude 00:07:33 82° 282° (WNW) 881 4.2 -17.9°
Drops below altitude 10° 00:13:20 10° 11° (N) 2,535 8.0 -17.6°
Sets 00:15:48 0° 12° (NNE) 3,483 9.1 -17.4°
